Location: La Trinit�
(48.1620°N, 3.4512°W)
Time: 07:47:52
(UTC+00:00)

Cosmos 1538 Rocket - Pass Details

Date: 08 May 2021
Orbit: 752 x 792 km, 74.0° (Epoch: 12 June)

Event Time Altitude Azimuth Distance (km) Brightness Sun altitude
Rises 21:53:47 0° 337° (NNW) 3,301 8.9 -17.8°
Reaches altitude 10° 21:56:12 10° 338° (NNW) 2,366 7.7 -18.0°
Maximum altitude 22:01:36 84° 66° (ENE) 798 4.0 -18.5°
Enters shadow 22:03:56 35° 153° (SSE) 1,249 4.5 -18.7°
